Regional Weather Roundup
Issued by NWS

Home | Current Version | Previous Version | Graphics & Text | Print | Product List | Glossary Off
Versions: 1 2 3 4 5 6 7 8 9 10 11 12 13 14 15 16 17 18 19 20 21 22 23 24 25 26 27 28 29 30 31 32 33 34 35 36 37 38 39 40 41 42 43 44 45 46 47 48 49 50

985
ASUS43 KTOP 220259
RWRKS

WEATHER ROUNDUP FOR KANSAS
NATIONAL WEATHER SERVICE GOODLAND KS
1000 PM CDT THU MAY 21 2015

NOTE:  "FAIR" INDICATES FEW OR NO CLOUDS BELOW 12,000 FEET WITH NO
SIGNIFICANT WEATHER AND/OR OBSTRUCTIONS TO VISIBILITY.

KSZ001>006-013>018-027>032-041>047-220400-
NORTHWEST KANSAS

CITY           SKY/WX    TMP DP  RH WIND       PRES   REMARKS
GOODLAND       CLOUDY    52  45  77 SE7       30.19S
HAYS           CLOUDY    52  41  66 S8        30.21R
HILL CITY      CLOUDY    53  45  74 S8        30.21R
RUSSELL        CLOUDY    51  46  83 S7        30.20R
$$

KSZ061>065-074>080-084>089-220400-
SOUTHWEST KANSAS

CITY           SKY/WX    TMP DP  RH WIND       PRES   REMARKS
DODGE CITY     CLOUDY    55  46  71 SE8       30.20S
ELKHART          N/A     51  44  77 E7          N/A
GARDEN CITY    CLOUDY    54  46  74 E7        30.17F
GREAT BEND     CLOUDY    54  45  71 SE7       30.22R
LIBERAL        CLOUDY    55  45  67 E10       30.15F
$$

KSZ066>073-081>083-090>101-220400-
SOUTHEAST KANSAS

CITY           SKY/WX    TMP DP  RH WIND       PRES   REMARKS
CHANUTE        CLEAR     53  49  86 SE3       30.22R
COFFEYVILLE    CLEAR     53  50  89 CALM      30.21R
HUTCHINSON     PTCLDY    49  45  86 CALM      30.23R
NEWTON         CLEAR     55  43  62 CALM      30.24R
PARSONS        CLEAR     53  50  89 NE3       30.22S
WICHITA INTL   PTCLDY    56  45  66 S3        30.22R
WICHITA JABRA  CLEAR     55  45  68 SE3       30.22R
WINFIELD       CLEAR     54  48  80 SE3       30.24R
$$

KSZ007>012-019>026-033>040-048>060-102>105-220400-
NORTHEAST KANSAS

CITY           SKY/WX    TMP DP  RH WIND       PRES   REMARKS
CONCORDIA      CLOUDY    55  42  61 S7        30.21R
EMPORIA        PTCLDY    55  45  68 S5        30.21R
LAWRENCE       PTCLDY    53  48  83 CALM      30.21R
MANHATTAN      MOCLDY    56  47  71 CALM      30.21R
OLATHE IND     CLEAR     55  47  74 S5        30.21R
OLATHE EXE     CLEAR     58  47  66 CALM      30.20R
SALINA         PTCLDY    56  47  71 S3        30.22R
TOPEKA BILLARD CLEAR     58  49  72 CALM      30.21R
TOPEKA FORBES  CLEAR     57  48  72 S3        30.21R
$$



USA.gov is the U.S. government's official web portal to all federal, state and local government web resources and services.